QPF
0.10 0.14 0.16 0.18 0.16 0.10 0.07 0.07 0.07 0.07 0.09 0.09 0.07 0.06 0.11 0.08 0.05 0.04 0.03 0.03 0.03 0.03 0.03 0.03 0.02 0.02 0.02 0.02 0.02 0.02 0.03 0.05 0.05 0.04 0.03 0.02 0.02 0.05 0.06 0.06 0.04 0.04 0.03
0.07 0.09 0.12 0.15 0.15 0.12 0.09 0.08 0.08 0.08 0.08 0.08 0.06 0.05 0.07 0.05 0.05 0.03 0.03 0.02 0.02 0.02 0.03 0.02 0.02 0.03 0.02 0.02 0.02 0.02 0.02 0.03 0.04 0.03 0.03 0.02 0.04 0.05 0.05 0.04 0.04 0.03 0.03
0.08 0.08 0.10 0.12 0.11 0.10 0.10 0.10 0.12 0.10 0.07 0.06 0.05 0.06 0.06 0.05 0.05 0.04 0.04 0.03 0.02 0.03 0.04 0.04 0.04 0.03 0.02 0.02 0.02 0.02 0.02 0.02 0.03 0.03 0.03 0.04 0.04 0.04 0.03 0.03 0.03 0.04 0.04
0.09 0.09 0.09 0.07 0.06 0.06 0.06 0.07 0.09 0.10 0.09 0.08 0.07 0.07 0.07 0.07 0.07 0.08 0.07 0.05 0.05 0.05 0.05 0.06 0.05 0.03 0.03 0.03 0.04 0.03 0.02 0.02 0.03 0.03 0.03 0.02 0.02 0.02 0.02 0.03 0.05 0.05 0.04
0.08 0.08 0.08 0.08 0.05 0.05 0.07 0.07 0.08 0.09 0.10 0.10 0.10 0.10 0.08 0.07 0.08 0.11 0.09 0.06 0.06 0.06 0.04 0.05 0.05 0.04 0.03 0.03 0.05 0.05 0.04 0.04 0.04 0.04 0.03 0.03 0.03 0.02 0.02 0.03 0.04 0.04 0.03
0.06 0.06 0.07 0.07 0.05 0.06 0.08 0.10 0.11 0.11 0.13 0.12 0.10 0.12 0.12 0.10 0.08 0.07 0.07 0.07 0.05 0.04 0.04 0.04 0.04 0.04 0.05 0.04 0.05 0.05 0.05 0.04 0.04 0.03 0.03 0.02 0.03 0.03 0.03 0.02 0.02 0.02 0.03
0.04 0.05 0.06 0.06 0.06 0.06 0.07 0.08 0.09 0.11 0.13 0.12 0.10 0.09 0.10 0.09 0.08 0.06 0.07 0.06 0.06 0.06 0.05 0.05 0.06 0.05 0.03 0.03 0.03 0.03 0.05 0.05 0.05 0.04 0.04 0.03 0.03 0.03 0.02 0.02 0.02 0.02 0.02
0.05 0.05 0.04 0.04 0.04 0.06 0.07 0.07 0.07 0.08 0.08 0.09 0.10 0.10 0.10 0.10 0.08 0.07 0.08 0.08 0.09 0.09 0.08 0.09 0.09 0.07 0.05 0.05 0.04 0.03 0.03 0.05 0.05 0.04 0.05 0.05 0.04 0.03 0.02 0.02 0.02 0.02 0.02
0.06 0.05 0.03 0.04 0.05 0.06 0.06 0.07 0.08 0.09 0.08 0.10 0.11 0.11 0.09 0.10 0.09 0.08 0.08 0.08 0.10 0.10 0.14 0.15 0.13 0.11 0.09 0.08 0.06 0.05 0.04 0.04 0.06 0.09 0.08 0.07 0.05 0.03 0.03 0.03 0.03 0.03 0.03
0.05 0.05 0.03 0.04 0.05 0.06 0.05 0.06 0.07 0.07 0.10 0.12 0.10 0.10 0.11 0.11 0.12 0.09 0.07 0.08 0.12 0.16 0.17 0.13 0.14 0.16 0.15 0.13 0.12 0.09 0.06 0.05 0.08 0.11 0.10 0.08 0.05 0.03 0.03 0.03 0.03 0.04 0.04
0.04 0.06 0.06 0.06 0.06 0.07 0.05 0.06 0.07 0.07 0.07 0.08 0.08 0.09 0.12 0.12 0.13 0.10 0.07 0.08 0.08 0.11 0.11 0.09 0.10 0.12 0.15 0.20 0.22 0.14 0.11 0.09 0.07 0.06 0.08 0.07 0.06 0.04 0.04 0.03 0.04 0.04 0.04
0.03 0.04 0.05 0.06 0.06 0.06 0.04 0.04 0.05 0.06 0.06 0.05 0.06 0.06 0.07 0.07 0.08 0.08 0.06 0.06 0.06 0.06 0.09 0.09 0.09 0.08 0.08 0.13 0.20 0.18 0.14 0.10 0.07 0.05 0.05 0.07 0.06 0.05 0.04 0.04 0.04 0.05 0.04
0.02 0.02 0.04 0.04 0.04 0.04 0.05 0.05 0.04 0.04 0.06 0.07 0.05 0.06 0.07 0.05 0.06 0.05 0.05 0.04 0.04 0.05 0.08 0.09 0.08 0.06 0.07 0.08 0.10 0.11 0.13 0.13 0.10 0.06 0.05 0.05 0.05 0.05 0.05 0.04 0.05 0.05 0.05
0.03 0.02 0.02 0.04 0.04 0.05 0.06 0.06 0.05 0.05 0.08 0.06 0.06 0.08 0.07 0.06 0.06 0.07 0.06 0.06 0.06 0.05 0.06 0.07 0.06 0.05 0.06 0.07 0.09 0.09 0.07 0.07 0.08 0.07 0.06 0.05 0.05 0.05 0.05 0.05 0.04 0.04 0.03
0.04 0.05 0.06 0.05 0.05 0.06 0.06 0.06 0.08 0.09 0.08 0.07 0.08 0.08 0.07 0.06 0.07 0.09 0.09 0.09 0.08 0.05 0.05 0.05 0.03 0.04 0.05 0.07 0.10 0.08 0.06 0.06 0.07 0.07 0.07 0.05 0.04 0.04 0.03 0.04 0.04 0.04 0.04
0.05 0.06 0.10 0.10 0.09 0.06 0.05 0.08 0.10 0.09 0.11 0.13 0.10 0.08 0.07 0.06 0.06 0.07 0.08 0.08 0.07 0.06 0.06 0.05 0.03 0.03 0.03 0.04 0.07 0.08 0.08 0.08 0.07 0.07 0.05 0.05 0.04 0.04 0.03 0.03 0.03 0.03 0.04
0.03 0.04 0.07 0.11 0.14 0.13 0.11 0.14 0.12 0.13 0.16 0.17 0.13 0.09 0.07 0.07 0.06 0.04 0.04 0.05 0.04 0.04 0.03 0.03 0.02 0.02 0.02 0.03 0.05 0.06 0.07 0.06 0.05 0.05 0.04 0.03 0.03 0.03 0.03 0.03 0.03 0.03 0.03
0.03 0.03 0.03 0.05 0.09 0.14 0.14 0.13 0.13 0.12 0.10 0.10 0.10 0.09 0.06 0.05 0.03 0.03 0.03 0.03 0.03 0.02 0.02 0.02 0.02 0.01 0.02 0.01 0.01 0.02 0.03 0.03 0.04 0.05 0.04 0.03 0.03 0.02 0.03 0.02 0.02 0.02 0.02
0.03 0.03 0.03 0.03 0.03 0.06 0.07 0.07 0.08 0.07 0.06 0.05 0.05 0.05 0.03 0.02 0.01 0.02 0.01 0.02 0.02 0.02 0.02 0.02 0.01 0.01 0.02 0.01 0.01 0.01 0.02 0.02 0.02 0.03 0.04 0.04 0.04 0.03 0.02 0.02 0.01 0.01 0.01
0.02 0.04 0.05 0.04 0.03 0.03 0.03 0.04 0.05 0.04 0.04 0.03 0.04 0.04 0.03 0.03 0.02 0.02 0.02 0.01 0.01 0.01 0.01 0.01 0.01 0.01 0.01 0.01 0.01 0.01 0.01 0.01 0.01 0.02 0.03 0.03 0.03 0.03 0.02 0.01 0.01 0.01 0.01
0.05 0.06 0.06 0.06 0.05 0.03 0.03 0.05 0.05 0.04 0.03 0.03 0.04 0.05 0.04 0.04 0.04 0.03 0.02 0.02 0.02 0.01 0.01 0.01 0.01 0.01 0.00 0.01 0.00 0.00 0.00 0.00 0.01 0.01 0.02 0.02 0.02 0.02 0.02 0.01 0.01 0.01 0.00
0.06 0.07 0.07 0.06 0.06 0.04 0.05 0.06 0.05 0.04 0.03 0.03 0.03 0.03 0.04 0.04 0.04 0.03 0.03 0.03 0.03 0.02 0.01 0.01 0.01 0.01 0.00 0.00 0.00 0.00 0.00 0.00 0.00 0.00 0.01 0.01 0.02 0.02 0.01 0.01 0.01 0.01 0.01
0.06 0.06 0.06 0.06 0.06 0.07 0.07 0.05 0.04 0.04 0.03 0.03 0.03 0.04 0.03 0.02 0.03 0.03 0.03 0.03 0.03 0.03 0.02 0.01 0.01 0.01 0.00 0.01 0.01 0.00 0.00 0.00 0.00 0.00 0.01 0.01 0.02 0.02 0.01 0.01 0.01 0.01 0.01
0.07 0.05 0.05 0.05 0.05 0.05 0.05 0.04 0.05 0.05 0.04 0.04 0.03 0.03 0.02 0.01 0.02 0.04 0.04 0.03 0.03 0.03 0.03 0.02 0.01 0.01 0.01 0.01 0.01 0.01 0.01 0.01 0.00 0.01 0.01 0.01 0.01 0.01 0.00 0.00 0.01 0.01 0.01
0.04 0.04 0.04 0.05 0.04 0.04 0.04 0.04 0.05 0.04 0.04 0.03 0.02 0.02 0.02 0.01 0.02 0.04 0.04 0.02 0.02 0.02 0.02 0.02 0.01 0.00 0.00 0.01 0.01 0.01 0.01 0.01 0.01 0.01 0.01 0.01 0.01 0.01 0.01 0.01 0.01 0.01 0.01
0.04 0.04 0.04 0.04 0.04 0.04 0.04 0.04 0.04 0.03 0.02 0.02 0.02 0.01 0.02 0.02 0.03 0.04 0.03 0.02 0.02 0.01 0.02 0.02 0.01 0.00 0.00 0.01 0.01 0.01 0.02 0.03 0.03 0.01 0.01 0.02 0.01 0.01 0.01 0.01 0.01 0.01 0.01
MSLP
1014.92 1015.09 1015.25 1015.41 1015.58 1015.75 1015.92 1016.05 1016.15 1016.20 1016.18 1016.13 1016.04 1015.95 1015.87 1015.83 1015.83 1015.89 1015.99 1016.13 1016.30 1016.49 1016.68 1016.87 1017.05 1017.23 1017.39 1017.54 1017.68 1017.81 1017.93 1018.05 1018.18 1018.33 1018.48 1018.65 1018.82 1018.98 1019.13 1019.26 1019.37 1019.45 1019.53
1014.50 1014.72 1014.93 1015.15 1015.36 1015.58 1015.78 1015.95 1016.08 1016.16 1016.19 1016.18 1016.15 1016.10 1016.06 1016.04 1016.05 1016.09 1016.16 1016.26 1016.38 1016.52 1016.68 1016.84 1017.01 1017.17 1017.31 1017.44 1017.54 1017.64 1017.73 1017.82 1017.94 1018.07 1018.24 1018.43 1018.63 1018.83 1019.00 1019.15 1019.27 1019.36 1019.43
1014.04 1014.30 1014.58 1014.86 1015.14 1015.41 1015.65 1015.85 1016.01 1016.13 1016.20 1016.24 1016.25 1016.26 1016.27 1016.28 1016.30 1016.33 1016.36 1016.42 1016.49 1016.58 1016.69 1016.82 1016.96 1017.10 1017.23 1017.34 1017.43 1017.50 1017.56 1017.63 1017.72 1017.85 1018.02 1018.22 1018.43 1018.64 1018.83 1018.99 1019.11 1019.20 1019.27
1013.57 1013.88 1014.21 1014.56 1014.90 1015.22 1015.50 1015.74 1015.92 1016.06 1016.16 1016.25 1016.32 1016.39 1016.45 1016.50 1016.55 1016.57 1016.59 1016.60 1016.62 1016.66 1016.73 1016.83 1016.94 1017.07 1017.19 1017.29 1017.37 1017.43 1017.47 1017.52 1017.59 1017.70 1017.85 1018.03 1018.23 1018.44 1018.62 1018.76 1018.87 1018.96 1019.03
1013.11 1013.46 1013.84 1014.25 1014.65 1015.01 1015.33 1015.58 1015.78 1015.94 1016.07 1016.20 1016.32 1016.45 1016.58 1016.68 1016.76 1016.81 1016.82 1016.81 1016.79 1016.79 1016.82 1016.89 1016.98 1017.10 1017.22 1017.32 1017.40 1017.45 1017.48 1017.51 1017.56 1017.64 1017.76 1017.90 1018.07 1018.23 1018.38 1018.49 1018.57 1018.63 1018.69
1012.68 1013.04 1013.47 1013.92 1014.36 1014.76 1015.10 1015.37 1015.58 1015.75 1015.91 1016.07 1016.25 1016.44 1016.64 1016.81 1016.94 1017.02 1017.05 1017.03 1017.00 1016.97 1016.98 1017.02 1017.10 1017.21 1017.33 1017.43 1017.52 1017.57 1017.60 1017.62 1017.64 1017.68 1017.75 1017.84 1017.94 1018.04 1018.12 1018.17 1018.20 1018.22 1018.24
1012.27 1012.64 1013.08 1013.56 1014.04 1014.46 1014.82 1015.10 1015.32 1015.50 1015.68 1015.88 1016.11 1016.37 1016.64 1016.88 1017.08 1017.21 1017.27 1017.27 1017.24 1017.20 1017.18 1017.20 1017.27 1017.37 1017.50 1017.61 1017.71 1017.77 1017.80 1017.80 1017.80 1017.80 1017.81 1017.83 1017.85 1017.86 1017.85 1017.82 1017.77 1017.72 1017.70
1011.88 1012.24 1012.69 1013.18 1013.68 1014.12 1014.49 1014.78 1015.00 1015.20 1015.40 1015.64 1015.92 1016.24 1016.58 1016.90 1017.17 1017.36 1017.46 1017.49 1017.46 1017.42 1017.39 1017.40 1017.46 1017.56 1017.68 1017.81 1017.92 1017.99 1018.02 1018.02 1017.99 1017.95 1017.90 1017.85 1017.78 1017.69 1017.57 1017.44 1017.29 1017.16 1017.07
1011.50 1011.84 1012.29 1012.79 1013.29 1013.74 1014.12 1014.42 1014.66 1014.87 1015.09 1015.36 1015.69 1016.06 1016.46 1016.84 1017.18 1017.42 1017.57 1017.63 1017.62 1017.58 1017.55 1017.55 1017.60 1017.69 1017.82 1017.95 1018.07 1018.15 1018.20 1018.20 1018.16 1018.09 1017.99 1017.86 1017.71 1017.52 1017.30 1017.05 1016.80 1016.57 1016.41
1011.13 1011.45 1011.89 1012.38 1012.89 1013.35 1013.74 1014.05 1014.30 1014.52 1014.76 1015.05 1015.41 1015.82 1016.26 1016.69 1017.07 1017.36 1017.54 1017.63 1017.64 1017.61 1017.58 1017.58 1017.62 1017.71 1017.84 1017.98 1018.11 1018.21 1018.27 1018.28 1018.25 1018.16 1018.03 1017.86 1017.63 1017.36 1017.04 1016.69 1016.33 1016.01 1015.77
1010.75 1011.07 1011.50 1011.98 1012.48 1012.94 1013.33 1013.65 1013.91 1014.15 1014.41 1014.71 1015.08 1015.51 1015.97 1016.43 1016.83 1017.14 1017.35 1017.46 1017.49 1017.48 1017.46 1017.46 1017.50 1017.59 1017.72 1017.86 1018.01 1018.13 1018.21 1018.25 1018.23 1018.16 1018.02 1017.82 1017.55 1017.22 1016.83 1016.39 1015.95 1015.54 1015.21
1010.36 1010.68 1011.10 1011.58 1012.07 1012.52 1012.92 1013.24 1013.50 1013.75 1014.01 1014.32 1014.69 1015.12 1015.58 1016.03 1016.43 1016.76 1016.99 1017.12 1017.17 1017.18 1017.18 1017.19 1017.24 1017.34 1017.47 1017.63 1017.79 1017.93 1018.04 1018.11 1018.13 1018.08 1017.96 1017.77 1017.49 1017.12 1016.69 1016.20 1015.69 1015.22 1014.82
1009.95 1010.28 1010.71 1011.17 1011.65 1012.09 1012.47 1012.79 1013.06 1013.30 1013.57 1013.87 1014.23 1014.64 1015.08 1015.52 1015.92 1016.24 1016.48 1016.64 1016.72 1016.76 1016.79 1016.83 1016.90 1017.01 1017.16 1017.33 1017.50 1017.67 1017.82 1017.92 1017.98 1017.97 1017.89 1017.72 1017.46 1017.10 1016.66 1016.15 1015.61 1015.09 1014.65
1009.50 1009.86 1010.29 1010.75 1011.20 1011.63 1012.00 1012.30 1012.57 1012.82 1013.07 1013.37 1013.71 1014.10 1014.52 1014.93 1015.32 1015.65 1015.91 1016.09 1016.21 1016.30 1016.37 1016.45 1016.55 1016.69 1016.85 1017.04 1017.23 1017.42 1017.59 1017.74 1017.84 1017.88 1017.85 1017.73 1017.51 1017.18 1016.76 1016.26 1015.72 1015.19 1014.73
1009.02 1009.42 1009.85 1010.30 1010.74 1011.14 1011.49 1011.79 1012.05 1012.30 1012.55 1012.84 1013.17 1013.54 1013.93 1014.34 1014.72 1015.05 1015.33 1015.55 1015.73 1015.87 1016.00 1016.13 1016.28 1016.45 1016.64 1016.84 1017.04 1017.25 1017.44 1017.61 1017.75 1017.84 1017.86 1017.79 1017.63 1017.36 1016.98 1016.53 1016.02 1015.51 1015.06
1008.51 1008.95 1009.39 1009.83 1010.25 1010.63 1010.96 1011.26 1011.52 1011.77 1012.03 1012.32 1012.65 1013.01 1013.39 1013.78 1014.16 1014.51 1014.82 1015.09 1015.32 1015.53 1015.73 1015.92 1016.11 1016.32 1016.53 1016.75 1016.96 1017.17 1017.38 1017.57 1017.73 1017.85 1017.92 1017.91 1017.81 1017.61 1017.30 1016.91 1016.46 1016.00 1015.58
1007.99 1008.47 1008.93 1009.36 1009.76 1010.13 1010.45 1010.74 1011.01 1011.28 1011.55 1011.85 1012.18 1012.55 1012.93 1013.32 1013.70 1014.07 1014.41 1014.72 1015.01 1015.28 1015.54 1015.79 1016.03 1016.27 1016.51 1016.73 1016.95 1017.17 1017.37 1017.57 1017.75 1017.91 1018.01 1018.06 1018.02 1017.88 1017.65 1017.34 1016.96 1016.57 1016.21
1007.50 1008.01 1008.48 1008.92 1009.31 1009.67 1009.99 1010.29 1010.57 1010.85 1011.14 1011.46 1011.80 1012.17 1012.55 1012.94 1013.33 1013.70 1014.07 1014.41 1014.75 1015.07 1015.38 1015.68 1015.96 1016.23 1016.48 1016.72 1016.94 1017.15 1017.36 1017.56 1017.75 1017.92 1018.06 1018.15 1018.17 1018.11 1017.95 1017.72 1017.44 1017.13 1016.85
1007.06 1007.60 1008.09 1008.52 1008.92 1009.27 1009.60 1009.91 1010.21 1010.51 1010.82 1011.15 1011.50 1011.86 1012.23 1012.61 1012.99 1013.37 1013.74 1014.10 1014.45 1014.80 1015.15 1015.48 1015.79 1016.08 1016.35 1016.59 1016.82 1017.03 1017.24 1017.45 1017.65 1017.84 1018.01 1018.14 1018.21 1018.20 1018.13 1017.99 1017.80 1017.58 1017.38
1006.70 1007.26 1007.76 1008.21 1008.60 1008.97 1009.30 1009.62 1009.93 1010.25 1010.57 1010.90 1011.24 1011.59 1011.94 1012.29 1012.64 1012.99 1013.34 1013.69 1014.05 1014.40 1014.75 1015.09 1015.42 1015.73 1016.01 1016.26 1016.50 1016.73 1016.95 1017.17 1017.39 1017.60 1017.79 1017.95 1018.07 1018.13 1018.13 1018.06 1017.96 1017.84 1017.74
1006.43 1007.01 1007.52 1007.98 1008.39 1008.75 1009.10 1009.42 1009.74 1010.05 1010.36 1010.68 1010.99 1011.30 1011.61 1011.91 1012.22 1012.52 1012.83 1013.15 1013.47 1013.81 1014.15 1014.49 1014.82 1015.13 1015.42 1015.69 1015.95 1016.20 1016.44 1016.69 1016.93 1017.17 1017.39 1017.58 1017.74 1017.85 1017.91 1017.92 1017.90 1017.88 1017.86
1006.28 1006.86 1007.39 1007.85 1008.26 1008.63 1008.97 1009.29 1009.59 1009.89 1010.17 1010.45 1010.72 1010.97 1011.22 1011.46 1011.70 1011.94 1012.19 1012.46 1012.74 1013.04 1013.35 1013.67 1013.99 1014.31 1014.61 1014.90 1015.18 1015.46 1015.73 1016.01 1016.28 1016.55 1016.80 1017.03 1017.22 1017.38 1017.49 1017.57 1017.62 1017.68 1017.74
1006.24 1006.82 1007.34 1007.80 1008.21 1008.57 1008.90 1009.20 1009.48 1009.73 1009.97 1010.20 1010.40 1010.59 1010.77 1010.94 1011.11 1011.28 1011.47 1011.68 1011.91 1012.16 1012.44 1012.73 1013.04 1013.35 1013.65 1013.96 1014.27 1014.57 1014.88 1015.19 1015.49 1015.79 1016.07 1016.33 1016.56 1016.75 1016.90 1017.04 1017.16 1017.28 1017.43
1006.31 1006.88 1007.39 1007.84 1008.23 1008.57 1008.88 1009.14 1009.38 1009.58 1009.77 1009.92 1010.06 1010.19 1010.29 1010.40 1010.50 1010.62 1010.75 1010.90 1011.08 1011.29 1011.53 1011.79 1012.07 1012.36 1012.67 1012.98 1013.30 1013.63 1013.96 1014.29 1014.62 1014.94 1015.25 1015.53 1015.78 1016.00 1016.20 1016.38 1016.55 1016.74 1016.95
1006.49 1007.03 1007.51 1007.93 1008.30 1008.62 1008.89 1009.11 1009.29 1009.44 1009.57 1009.66 1009.74 1009.81 1009.86 1009.91 1009.97 1010.04 1010.12 1010.23 1010.37 1010.54 1010.74 1010.96 1011.21 1011.47 1011.76 1012.06 1012.37 1012.70 1013.03 1013.37 1013.72 1014.05 1014.37 1014.66 1014.94 1015.19 1015.42 1015.64 1015.86 1016.10 1016.37
1006.76 1007.25 1007.69 1008.08 1008.42 1008.70 1008.93 1009.10 1009.24 1009.34 1009.41 1009.46 1009.49 1009.51 1009.53 1009.55 1009.57 1009.61 1009.67 1009.75 1009.85 1009.98 1010.14 1010.31 1010.51 1010.73 1010.98 1011.24 1011.52 1011.82 1012.14 1012.47 1012.80 1013.13 1013.45 1013.75 1014.04 1014.32 1014.58 1014.84 1015.11 1015.40 1015.72
Thickness
5770 5769 5768 5767 5766 5765 5764 5762 5761 5760 5759 5757 5757 5756 5754 5752 5751 5750 5749 5749 5748 5746 5744 5742 5741 5739 5737 5736 5735 5733 5731 5730 5728 5727 5725 5724 5723 5721 5720 5718 5717 5715 5714
5771 5769 5767 5766 5765 5764 5763 5761 5760 5759 5757 5756 5755 5754 5753 5751 5750 5749 5748 5747 5746 5745 5744 5742 5740 5739 5737 5735 5734 5732 5730 5729 5727 5726 5724 5723 5721 5720 5718 5717 5715 5714 5712
5771 5769 5767 5765 5764 5763 5762 5760 5759 5757 5755 5754 5753 5752 5751 5750 5749 5747 5746 5745 5744 5743 5742 5741 5739 5738 5736 5735 5733 5731 5729 5728 5726 5725 5723 5722 5720 5718 5717 5715 5713 5712 5710
5771 5769 5767 5765 5764 5762 5761 5759 5757 5755 5753 5751 5750 5750 5749 5748 5747 5746 5744 5743 5742 5741 5740 5739 5738 5737 5736 5734 5732 5730 5728 5727 5726 5724 5722 5720 5719 5717 5715 5714 5712 5710 5709
5771 5769 5767 5765 5763 5761 5759 5758 5755 5753 5750 5748 5748 5748 5747 5746 5745 5744 5742 5741 5740 5739 5738 5737 5736 5735 5735 5733 5731 5729 5728 5726 5725 5723 5721 5719 5718 5716 5714 5713 5711 5709 5707
5771 5768 5766 5764 5763 5760 5758 5756 5753 5751 5749 5747 5746 5745 5744 5744 5744 5742 5741 5740 5738 5737 5736 5735 5734 5734 5733 5731 5730 5729 5727 5725 5724 5722 5720 5718 5717 5715 5713 5711 5710 5708 5706
5771 5769 5767 5764 5762 5759 5757 5755 5753 5749 5747 5746 5741 5738 5739 5741 5741 5741 5740 5739 5737 5737 5735 5734 5733 5732 5732 5731 5729 5728 5727 5724 5722 5721 5719 5717 5715 5714 5712 5710 5708 5707 5705
5771 5769 5767 5764 5762 5759 5756 5754 5752 5748 5746 5745 5740 5733 5729 5731 5736 5739 5738 5737 5736 5735 5734 5733 5732 5730 5729 5728 5728 5727 5725 5723 5721 5719 5717 5715 5714 5712 5711 5709 5707 5705 5703
5772 5770 5768 5765 5762 5760 5757 5755 5753 5748 5744 5743 5742 5735 5726 5723 5727 5732 5734 5734 5733 5733 5732 5731 5730 5729 5728 5726 5725 5724 5723 5722 5720 5718 5716 5714 5712 5710 5709 5707 5706 5704 5702
5772 5771 5768 5766 5763 5760 5757 5755 5753 5750 5745 5741 5740 5739 5736 5732 5724 5722 5726 5729 5730 5729 5728 5729 5728 5727 5726 5725 5723 5722 5721 5720 5718 5716 5714 5713 5711 5709 5707 5706 5704 5702 5700
5772 5771 5769 5766 5763 5760 5758 5755 5753 5750 5747 5743 5740 5738 5734 5731 5729 5721 5718 5721 5724 5726 5727 5726 5725 5724 5723 5722 5721 5720 5719 5717 5715 5713 5712 5710 5709 5707 5705 5704 5702 5700 5699
5771 5770 5769 5766 5764 5761 5758 5755 5752 5749 5746 5743 5741 5738 5734 5730 5726 5723 5719 5718 5718 5722 5724 5724 5723 5722 5721 5719 5717 5717 5715 5713 5712 5710 5709 5708 5706 5704 5703 5701 5700 5698 5696
5769 5769 5768 5766 5763 5761 5758 5755 5752 5749 5746 5743 5741 5738 5736 5734 5732 5727 5722 5717 5716 5718 5720 5720 5721 5720 5718 5716 5715 5713 5712 5710 5709 5707 5706 5705 5703 5701 5700 5699 5697 5695 5694
5769 5769 5767 5765 5763 5760 5758 5754 5750 5748 5745 5743 5741 5738 5736 5736 5734 5730 5725 5719 5713 5712 5714 5715 5718 5717 5716 5714 5712 5710 5708 5706 5704 5703 5702 5701 5700 5698 5697 5696 5694 5693 5691
5770 5769 5767 5764 5762 5759 5756 5753 5749 5746 5744 5741 5739 5737 5735 5735 5734 5732 5729 5724 5716 5709 5708 5711 5712 5714 5713 5711 5709 5707 5704 5702 5700 5699 5698 5697 5696 5694 5693 5692 5691 5689 5687
5770 5767 5765 5762 5760 5757 5754 5751 5747 5745 5742 5739 5737 5735 5733 5733 5731 5730 5728 5725 5721 5714 5708 5710 5710 5710 5709 5707 5705 5703 5701 5699 5697 5695 5694 5693 5692 5691 5689 5688 5687 5685 5683
5767 5765 5763 5760 5757 5754 5752 5748 5746 5743 5739 5736 5735 5733 5731 5730 5728 5727 5725 5722 5719 5715 5708 5708 5707 5707 5704 5702 5701 5699 5697 5696 5694 5692 5690 5689 5688 5687 5685 5684 5682 5680 5678
5765 5762 5760 5757 5754 5752 5749 5746 5744 5741 5737 5734 5732 5731 5729 5728 5726 5724 5722 5719 5717 5715 5709 5704 5703 5701 5700 5698 5696 5694 5694 5692 5690 5688 5686 5685 5683 5682 5681 5679 5677 5675 5674
5762 5759 5756 5753 5751 5749 5746 5744 5742 5739 5736 5734 5731 5728 5727 5725 5722 5721 5719 5716 5713 5712 5708 5703 5699 5698 5696 5694 5691 5690 5688 5686 5685 5684 5682 5680 5678 5677 5676 5674 5672 5670 5669
5757 5755 5752 5750 5748 5746 5744 5741 5738 5736 5733 5731 5728 5726 5724 5722 5720 5718 5716 5712 5710 5707 5704 5700 5696 5693 5691 5689 5686 5683 5680 5679 5678 5678 5676 5675 5673 5671 5670 5668 5667 5665 5664
5754 5751 5748 5745 5744 5742 5740 5737 5735 5732 5728 5726 5724 5723 5722 5720 5718 5715 5713 5709 5706 5702 5699 5695 5691 5688 5685 5682 5680 5678 5675 5673 5672 5671 5669 5669 5667 5666 5665 5663 5662 5660 5659
5749 5746 5743 5741 5738 5737 5736 5734 5731 5727 5724 5722 5720 5719 5718 5717 5715 5712 5710 5708 5705 5700 5695 5692 5688 5684 5682 5680 5677 5674 5670 5666 5663 5666 5663 5663 5662 5661 5660 5659 5658 5656 5655
5744 5741 5738 5735 5733 5731 5730 5728 5726 5723 5720 5718 5716 5714 5714 5712 5709 5707 5705 5703 5701 5699 5696 5692 5686 5684 5680 5678 5674 5670 5666 5663 5661 5662 5659 5657 5657 5655 5656 5655 5654 5652 5650
5739 5736 5733 5730 5728 5726 5725 5722 5720 5717 5715 5713 5711 5709 5707 5705 5704 5701 5699 5696 5694 5693 5691 5689 5686 5684 5681 5678 5673 5670 5666 5661 5659 5658 5655 5651 5651 5650 5652 5650 5649 5648 5646
5734 5731 5728 5725 5722 5721 5719 5717 5714 5711 5708 5707 5706 5704 5702 5700 5698 5695 5692 5689 5687 5686 5686 5684 5682 5680 5677 5674 5670 5664 5658 5654 5651 5652 5651 5647 5646 5645 5644 5644 5644 5642 5641
5728 5726 5723 5720 5718 5715 5714 5711 5708 5705 5702 5700 5699 5698 5697 5695 5692 5689 5686 5683 5680 5679 5678 5676 5674 5672 5670 5668 5665 5660 5656 5650 5646 5645 5647 5642 5640 5637 5635 5637 5637 5636 5634